Weather History for Elkins, WV

Change the Weather History Date:

Saturday, December 7, 2013

  Actual Average Record
Temperature  
Mean Temperature 28 °F 35 °F  
Max Temperature 33 °F 45 °F 76 °F (1951)
Min Temperature 22 °F 25 °F -4 °F (2008)
Degree Days  
Heating Degree Days 37 30  
Month to date heating degree days 166 205  
Since 1 July heating degree days 1461 1489  
Cooling Degree Days 0 0  
Month to date cooling degree days 0 0  
Year to date cooling degree days 533 475  
Moisture  
Dew Point 25 °F    
Average Humidity 84    
Maximum Humidity 92    
Minimum Humidity 75    
Precipitation  
Precipitation 0.01 in 0.11 in 1.80 in (2011)
Month to date precipitation 2.50 0.79  
Year to date precipitation 42.24 43.46  
Snow  
Snow 0.10 in - - ()
Month to date snowfall 0.1  
Since 1 September snowfall 7.0  
Snow Depth T in    
Sea Level Pressure  
Sea Level Pressure 30.41 in    
Wind  
Wind Speed 4 mph (NNW)    
Max Wind Speed 12 mph    
Max Gust Speed 15 mph    
Visibility 9 miles    
Events Snow    
T = Trace of Precipitation, MM = Missing Value Source: NWS Daily Summary

Daily Weather History Graph

Daily Weather History Graph

Search for Another Location

Airport:

Trip Planner

Search our weather history database for the weather conditions in past years. The results will help you decide how hot, cold, wet, or windy it might be!

Date:

Astronomy

Dec. 07, 2013 Rise Set
Actual Time 7:24 AM EST 4:57 PM EST
Civil Twilight 6:55 AM EST 5:26 PM EST
Nautical Twilight 6:21 AM EST 6:00 PM EST
Astronomical Twilight 5:49 AM EST 6:32 PM EST
Moon 11:10 AM EST (12/7) 10:34 PM EST (12/7)
Length of Visible Light 10h 31m
Length of Day
9h 32m
Waxing Crescent, 29% of the Moon is Illuminated
Dec 7
Waxing Crescent
Dec 9
First Quarter
Dec 17
Full
Dec 25
Last Quarter
Jan 1
New

Hourly Weather History & Observations

Time (EST) Temp. Windchill Dew Point Humidity Pressure Visibility Wind Dir Wind Speed Gust Speed Precip Events Conditions
12:01 AM 33.8 °F 26.4 °F 30.2 °F 87% 30.15 in 9.0 mi NW 9.2 mph - 0.00 in Snow Light Snow
12:15 AM 32.0 °F 26.4 °F 30.2 °F 93% 30.16 in 10.0 mi NW 5.8 mph - 0.00 in Snow Light Snow
12:51 AM 30.9 °F 23.5 °F 28.9 °F 92% 30.26 in 7.0 mi NW 8.1 mph - 0.00 in Snow Light Snow
1:18 AM 30.2 °F 24.3 °F 28.4 °F 93% 30.20 in 6.0 mi NNW 5.8 mph - 0.01 in Snow Light Snow
1:51 AM 30.9 °F 26.2 °F 28.0 °F 89% 30.28 in 9.0 mi NW 4.6 mph - 0.01 in Snow Light Snow
2:21 AM 30.2 °F 25.4 °F 28.4 °F 93% 30.21 in 9.0 mi WNW 4.6 mph - 0.00 in Snow Light Snow
2:51 AM 30.9 °F 24.3 °F 28.0 °F 89% 30.29 in 9.0 mi NW 6.9 mph - 0.00 in Snow Light Snow
3:16 AM 30.2 °F 23.4 °F 28.4 °F 93% 30.24 in 9.0 mi NW 6.9 mph - 0.00 in Snow Light Snow
3:23 AM 30.2 °F 24.3 °F 28.4 °F 93% 30.24 in 9.0 mi NW 5.8 mph - 0.00 in Snow Light Snow
3:51 AM 30.0 °F 25.2 °F 28.0 °F 92% 30.30 in 9.0 mi NW 4.6 mph - 0.00 in Snow Light Snow
4:43 AM 30.2 °F 25.4 °F 26.6 °F 86% 30.26 in 10.0 mi NNW 4.6 mph - 0.00 in   Overcast
4:51 AM 30.0 °F 24.1 °F 27.0 °F 88% 30.33 in 10.0 mi NNW 5.8 mph - 0.00 in Snow Light Snow
5:51 AM 30.0 °F 25.2 °F 27.0 °F 88% 30.37 in 4.0 mi NNW 4.6 mph - 0.00 in Snow Light Snow
5:58 AM 30.2 °F 26.7 °F 26.6 °F 86% 30.29 in 7.0 mi NNW 3.5 mph - 0.00 in Snow Light Snow
6:20 AM 30.2 °F 26.7 °F 26.6 °F 86% 30.31 in 10.0 mi NW 3.5 mph - 0.00 in   Overcast
6:51 AM 30.0 °F 23.2 °F 26.1 °F 85% 30.40 in 8.0 mi NW 6.9 mph - 0.00 in Snow Light Snow
7:11 AM 28.4 °F 23.3 °F 26.6 °F 93% 30.34 in 5.0 mi North 4.6 mph - 0.00 in Snow Light Snow
7:51 AM 28.9 °F 23.9 °F 24.1 °F 82% 30.43 in 7.0 mi NNW 4.6 mph - 0.00 in Snow Light Snow
8:51 AM 28.9 °F 21.9 °F 25.0 °F 85% 30.47 in 10.0 mi NNW 6.9 mph - 0.00 in   Overcast
9:04 AM 28.4 °F 21.2 °F 24.8 °F 86% 30.40 in 10.0 mi NNW 6.9 mph - N/A   Overcast
9:27 AM 28.4 °F 20.4 °F 24.8 °F 86% 30.41 in 10.0 mi NNW 8.1 mph - N/A   Overcast
9:51 AM 28.0 °F 20.8 °F 23.0 °F 81% 30.49 in 10.0 mi North 6.9 mph - N/A   Overcast
10:19 AM 28.4 °F 23.3 °F 24.8 °F 86% 30.42 in 10.0 mi NNW 4.6 mph - N/A   Overcast
10:51 AM 28.9 °F 22.8 °F 24.1 °F 82% 30.51 in 10.0 mi NW 5.8 mph - N/A   Overcast
11:49 AM 28.4 °F 22.2 °F 24.8 °F 86% 30.41 in 10.0 mi NNW 5.8 mph - N/A   Overcast
11:51 AM 28.0 °F 22.8 °F 25.0 °F 88% 30.49 in 10.0 mi NNW 4.6 mph - N/A   Overcast
12:51 PM 28.0 °F 22.8 °F 25.0 °F 88% 30.48 in 10.0 mi NW 4.6 mph - N/A   Overcast
1:51 PM 28.0 °F 20.8 °F 25.0 °F 88% 30.48 in 10.0 mi NNW 6.9 mph - N/A   Overcast
2:51 PM 28.9 °F 25.2 °F 25.0 °F 85% 30.48 in 10.0 mi North 3.5 mph - 0.00 in   Overcast
2:58 PM 28.4 °F 23.3 °F 24.8 °F 86% 30.41 in 10.0 mi NNW 4.6 mph - N/A   Overcast
3:51 PM 28.9 °F 25.2 °F 23.0 °F 78% 30.49 in 10.0 mi NNW 3.5 mph - N/A   Overcast
4:51 PM 28.9 °F 25.2 °F 23.0 °F 78% 30.51 in 10.0 mi NW 3.5 mph - N/A   Overcast
5:51 PM 28.0 °F 22.8 °F 21.9 °F 78% 30.53 in 10.0 mi NNW 4.6 mph - N/A   Overcast
6:51 PM 27.0 °F 20.5 °F 19.9 °F 75% 30.55 in 10.0 mi NNW 5.8 mph - N/A   Mostly Cloudy
7:03 PM 26.6 °F 22.6 °F 19.4 °F 74% 30.46 in 10.0 mi NNW 3.5 mph - N/A   Scattered Clouds
7:51 PM 26.1 °F 21.9 °F 19.9 °F 78% 30.56 in 10.0 mi North 3.5 mph - N/A   Partly Cloudy
8:24 PM 26.6 °F - 21.2 °F 80% 30.47 in 10.0 mi Calm Calm - N/A   Mostly Cloudy
8:51 PM 26.1 °F - 21.9 °F 84% 30.55 in 10.0 mi Calm Calm - N/A   Overcast
9:17 PM 26.6 °F - 21.2 °F 80% 30.46 in 10.0 mi Calm Calm - N/A   Scattered Clouds
9:37 PM 26.6 °F - 21.2 °F 80% 30.45 in 10.0 mi Calm Calm - N/A   Mostly Cloudy
9:51 PM 25.0 °F - 21.0 °F 85% 30.55 in 10.0 mi Calm Calm - N/A   Mostly Cloudy
10:14 PM 24.8 °F 20.5 °F 19.4 °F 80% 30.46 in 10.0 mi North 3.5 mph - N/A   Partly Cloudy
10:29 PM 24.8 °F 20.5 °F 21.2 °F 86% 30.46 in 10.0 mi North 3.5 mph - N/A   Mostly Cloudy
10:51 PM 26.1 °F - 21.0 °F 81% 30.56 in 10.0 mi Calm Calm - N/A   Overcast
11:08 PM 24.8 °F - 21.2 °F 86% 30.46 in 10.0 mi Calm Calm - N/A   Scattered Clouds
11:51 PM 23.0 °F - 19.9 °F 88% 30.56 in 10.0 mi Calm Calm - N/A   Clear